Theta_e
306 309 312 314 314 316 317 318 319 320 321 321 321 320 321 320 321 321 317 313 312 311 311 310 309 309 309 309 309 307 307 306 307 307 306 300 301 300 300 301 300 296 295 294 296 296 295 294 292 291 292 291 291 291 291 291 292 292 292 291 290 290 290 290 288 288 291 291 289 289 290 290 288 290 289 289 289 290 289 289 289 289 289 289 289
306 307 309 310 312 314 315 317 317 318 319 319 318 318 318 317 317 316 313 311 310 310 309 309 308 308 309 310 307 305 305 305 302 305 302 300 297 297 298 299 298 295 294 294 294 294 293 291 290 290 291 291 290 290 290 290 290 290 290 290 289 289 289 288 288 287 287 289 289 290 289 290 287 290 288 287 288 288 288 288 289 289 288 289 289
306 307 308 308 309 311 313 314 315 314 315 315 315 315 316 315 314 312 310 308 308 309 309 307 307 307 308 308 306 303 303 300 301 302 300 298 297 296 297 299 296 294 293 292 292 292 291 290 289 290 290 289 290 290 290 290 290 290 289 289 289 288 288 288 287 287 287 287 288 287 288 288 287 287 288 288 288 288 287 287 288 289 289 289 288
306 306 306 307 308 309 309 310 311 311 311 312 312 312 311 310 308 309 307 306 305 305 307 307 306 305 304 303 302 301 298 297 298 299 299 299 297 296 295 296 295 293 292 291 290 290 290 289 289 289 290 289 289 289 289 289 289 289 289 289 288 288 288 287 287 286 285 285 287 286 287 286 287 288 288 288 287 287 287 287 288 288 288 289 288
305 305 304 304 304 305 306 307 307 308 308 308 308 306 304 304 303 305 304 303 304 303 303 304 304 304 302 301 299 298 297 297 297 298 298 296 296 294 293 293 293 292 291 290 288 290 290 289 289 289 290 289 289 288 289 289 289 289 288 288 287 287 286 286 285 286 285 285 285 287 287 287 287 287 288 286 286 286 287 287 287 287 287 288 287
303 302 302 302 302 303 304 303 305 306 306 304 305 303 302 302 303 303 303 303 301 302 303 302 302 302 301 300 299 298 298 298 298 299 297 295 293 292 292 291 291 290 290 289 290 291 290 290 289 290 289 289 288 289 289 288 288 288 287 287 286 286 286 285 285 285 285 285 285 284 286 285 285 286 287 286 284 284 285 286 286 286 285 285 285
302 302 301 301 301 301 301 301 303 303 303 303 301 300 300 298 299 300 299 300 298 297 297 299 298 299 299 299 299 299 298 298 297 295 294 293 291 290 290 290 290 290 290 290 290 290 290 290 289 289 290 290 289 288 288 288 288 287 287 286 286 285 285 285 285 284 284 284 284 285 285 286 285 284 286 286 285 285 283 282 282 285 285 284 283
300 300 300 300 300 300 300 301 301 301 300 299 298 297 296 295 296 296 296 297 297 298 297 297 296 296 296 296 297 298 297 297 294 293 292 291 290 290 289 289 289 289 289 289 289 289 289 289 289 289 289 290 289 289 289 288 287 286 287 286 286 284 285 285 284 284 284 284 284 283 284 284 285 285 286 285 283 284 284 281 280 281 281 283 283
299 299 298 299 300 300 298 298 297 296 295 295 295 295 294 294 294 294 295 295 295 295 295 295 294 294 295 295 295 296 297 297 294 292 291 290 290 290 289 289 289 288 288 288 288 288 288 288 288 289 288 286 286 287 287 287 287 286 285 285 285 285 285 285 284 284 284 283 283 284 283 283 284 283 282 282 281 281 282 282 280 281 281 281 282
299 299 299 299 299 296 296 296 295 294 295 294 294 293 293 293 293 293 294 294 294 294 295 295 295 295 295 294 294 295 296 296 290 290 291 290 290 290 290 289 288 288 287 286 286 287 287 287 286 284 283 283 284 284 284 284 285 287 286 285 284 284 283 282 283 283 282 282 282 282 281 282 282 282 281 282 282 282 281 280 278 280 280 279 280
299 299 299 298 295 294 294 293 293 293 294 293 292 292 292 292 292 292 292 292 292 293 294 294 294 294 294 294 293 294 295 293 288 291 291 290 290 289 289 288 288 287 287 286 286 286 286 286 285 284 284 283 284 284 284 284 284 284 285 285 285 284 282 282 282 282 281 281 282 281 281 280 281 282 281 282 282 280 279 279 279 279 277 276 275
298 298 299 296 294 293 293 292 292 293 293 293 292 292 292 291 291 291 291 291 291 291 291 292 293 293 294 292 292 293 294 288 290 290 291 290 289 289 289 288 288 288 287 287 286 286 285 285 284 285 285 285 285 285 284 284 284 284 284 284 283 283 284 283 282 281 282 281 280 281 280 280 281 281 281 281 279 279 279 279 278 278 276 276 276
298 298 297 295 294 294 293 293 292 292 293 292 292 292 291 290 291 291 291 290 290 291 292 291 291 291 292 291 294 292 291 288 290 290 290 290 290 289 289 289 288 287 287 286 286 285 285 284 283 284 284 283 284 285 285 284 284 284 284 283 283 282 283 284 284 283 282 281 280 279 280 280 279 280 281 279 280 277 278 278 278 277 277 276 276
297 297 296 295 295 293 293 293 293 293 291 291 291 291 290 291 291 291 290 289 291 291 290 290 289 290 290 290 291 289 289 288 290 290 289 289 289 289 289 288 288 287 286 286 286 285 284 284 283 282 283 283 284 284 284 284 284 283 284 284 283 282 282 283 282 281 282 282 281 279 281 282 280 280 281 280 278 277 277 276 277 276 275 275 277
295 296 295 295 295 293 292 292 293 292 291 290 290 289 290 289 289 288 288 289 289 289 289 288 288 288 289 290 289 289 290 289 290 289 289 289 289 288 288 288 287 286 286 286 285 285 285 284 283 283 283 283 284 284 284 284 283 283 283 282 282 282 283 282 282 282 282 282 282 281 281 281 281 280 280 280 280 279 278 277 276 276 276 277 277
295 295 295 295 294 294 293 293 292 292 291 289 289 289 289 289 288 289 288 288 288 289 289 288 287 287 288 290 289 290 290 289 289 289 289 289 288 287 287 286 286 285 285 285 285 285 284 284 283 283 283 283 283 283 284 285 283 282 281 281 281 281 280 281 280 281 282 282 281 281 280 280 280 280 280 280 279 279 278 278 277 277 275 274 274
294 295 294 294 294 295 294 294 293 292 290 289 288 289 288 288 288 288 288 288 287 287 287 287 287 287 287 288 289 289 289 289 288 289 289 288 287 286 285 285 285 284 284 284 284 284 284 283 283 283 282 282 283 284 285 284 283 281 280 279 279 278 278 280 281 281 279 279 279 279 279 279 280 279 279 278 278 278 276 275 275 275 273 272 273
294 294 294 294 294 295 294 293 291 289 288 288 288 288 288 288 288 287 288 287 287 287 286 286 286 286 287 287 289 288 288 288 288 289 288 287 286 285 285 285 284 283 283 283 284 283 283 282 282 282 282 282 283 285 285 284 281 281 279 277 276 276 278 280 280 279 278 277 277 277 277 278 277 277 276 276 277 277 275 273 274 274 272 272 271
293 293 294 294 295 295 293 292 291 289 289 289 288 288 287 287 287 286 288 287 287 286 285 286 286 286 286 287 286 287 287 286 288 288 288 287 286 286 285 284 283 283 282 282 283 283 282 281 281 282 282 283 284 285 285 283 281 279 278 276 275 275 277 279 278 276 275 275 275 276 276 275 275 275 275 275 275 275 275 274 275 274 272 272 272
293 294 294 294 294 293 290 289 289 288 288 288 288 288 288 287 285 286 286 287 285 285 284 285 285 286 286 286 286 288 287 286 287 288 287 286 286 286 285 284 283 282 282 282 280 281 281 281 281 282 282 283 284 285 284 283 280 279 278 276 276 275 279 277 276 275 274 274 274 274 273 274 273 274 274 274 274 274 275 275 275 274 272 272 272
294 294 294 293 292 292 290 289 288 288 288 288 288 287 287 287 285 285 285 284 284 284 284 284 284 284 285 286 286 286 287 286 286 287 287 286 286 285 285 285 284 282 281 281 281 280 279 280 280 282 283 284 285 285 284 282 281 279 278 277 278 278 277 274 274 275 272 272 272 272 272 273 273 273 273 273 274 274 274 275 274 274 273 272 271
293 293 293 293 291 289 288 288 288 288 287 287 287 286 286 286 285 285 284 284 283 283 283 283 283 283 284 285 285 286 286 285 286 286 286 286 286 285 285 285 284 283 281 280 280 280 280 280 279 281 283 284 284 284 283 282 281 278 278 279 279 278 275 274 273 273 272 272 272 272 272 272 273 273 272 273 273 273 273 273 274 274 274 274 273
291 291 289 289 288 287 287 287 287 287 286 286 286 286 285 284 283 283 283 283 283 282 281 282 282 282 283 284 285 285 286 285 285 285 285 286 286 285 285 284 284 283 282 280 280 280 280 280 280 282 283 284 284 283 282 282 280 278 279 280 278 276 274 273 272 271 271 271 271 271 272 272 271 272 272 272 272 272 272 273 273 273 273 274 274
288 288 287 287 286 286 286 286 286 287 286 286 286 285 284 283 282 282 282 282 282 281 281 281 281 281 281 282 283 284 284 285 284 284 285 285 286 285 285 284 284 282 282 281 281 281 280 280 280 282 283 284 283 282 282 281 279 279 280 278 276 274 272 271 271 271 270 270 270 271 271 271 271 271 271 272 271 271 271 272 271 272 272 273 274
286 286 285 285 285 285 285 285 285 285 285 285 285 283 283 282 282 282 282 282 282 281 281 280 281 281 281 282 282 283 283 284 284 284 284 284 285 285 284 284 284 283 281 282 281 281 281 281 281 282 283 283 282 282 281 280 278 279 278 276 274 271 271 271 270 270 269 270 271 271 271 270 271 270 271 270 271 271 271 271 272 272 273 273 273
285 284 284 284 283 283 283 283 283 283 283 285 285 284 282 282 283 282 282 282 282 282 281 280 280 281 281 282 281 282 282 283 284 284 284 284 284 285 284 284 283 282 281 281 281 281 281 281 281 282 282 282 280 279 277 277 278 277 275 273 270 271 270 270 269 269 270 270 270 269 270 270 270 270 270 270 269 270 270 270 271 272 273 272 272
283 283 282 283 282 282 282 283 283 282 282 284 284 284 283 283 283 281 282 282 281 282 281 280 280 280 281 281 281 281 281 282 283 283 283 283 283 284 283 283 283 282 280 280 280 280 280 281 281 282 281 281 278 276 275 276 274 273 271 269 269 270 270 269 269 269 270 269 269 269 269 269 269 269 269 269 269 270 271 270 270 271 272 272 271
284 282 281 282 282 281 283 279 280 282 282 282 283 283 283 283 283 282 282 282 281 281 281 280 280 280 280 281 280 280 280 280 281 282 283 283 283 283 282 282 282 280 279 279 279 280 280 281 281 280 277 275 274 273 272 271 270 269 269 268 268 269 269 269 268 268 268 268 268 268 267 268 268 268 269 269 269 269 270 270 270 270 271 271 269
282 280 280 281 281 281 282 281 281 282 281 281 282 283 282 282 283 283 283 284 284 283 282 281 281 281 281 281 280 279 279 279 280 283 283 284 283 282 281 282 282 280 279 280 278 279 279 278 276 275 274 272 270 270 269 268 268 268 267 268 267 267 267 267 267 267 267 266 266 267 267 267 267 268 268 268 268 269 270 269 270 270 270 271 269
280 280 280 281 280 280 281 280 280 281 281 281 280 280 278 280 282 283 283 282 282 283 283 282 282 282 281 282 282 281 280 281 282 282 283 283 284 283 283 283 283 280 280 281 279 277 276 274 273 272 272 270 269 269 268 268 267 267 266 267 267 267 267 267 267 266 266 266 266 266 266 267 267 267 267 267 267 268 269 269 269 270 269 269 269
282 280 279 280 279 280 280 280 279 280 280 280 280 280 280 279 279 280 280 281 281 281 281 282 282 283 282 281 282 282 281 280 281 282 282 283 284 284 283 283 283 281 282 279 276 275 274 273 272 272 271 271 270 269 269 268 267 267 267 267 267 266 266 266 266 266 266 265 266 266 266 266 266 266 266 266 266 267 268 269 269 269 269 269 268
283 282 281 280 278 279 280 279 279 279 279 279 279 279 280 280 279 279 280 280 280 281 281 281 282 282 283 282 281 281 281 281 281 282 282 283 283 284 284 284 283 282 282 281 275 274 274 273 273 272 271 270 270 270 269 269 268 268 267 266 265 266 266 265 266 265 265 265 265 265 266 266 266 266 266 266 266 266 267 267 268 268 268 269 268
282 281 280 279 278 278 278 279 278 278 278 277 278 278 279 279 279 280 279 280 280 280 280 281 282 282 282 282 283 281 281 281 281 282 282 282 283 283 284 284 284 283 282 278 274 274 273 273 273 273 272 270 270 270 270 269 268 268 268 267 266 265 265 265 266 264 265 265 265 265 265 265 265 265 265 265 265 265 266 267 267 268 268 267 268
280 281 280 279 279 279 278 279 278 278 279 278 278 278 278 278 279 280 280 279 278 279 280 280 281 281 282 282 282 282 282 282 282 282 282 282 283 283 283 282 284 284 281 277 275 274 274 273 273 273 273 271 270 270 269 268 268 267 267 266 266 266 265 264 264 264 264 265 265 264 264 264 264 264 264 265 265 265 265 266 267 267 266 267 267
278 275 272 275 279 279 279 279 278 278 278 277 277 277 277 277 277 277 278 278 279 278 278 279 280 281 281 281 282 282 282 282 282 282 282 282 283 283 283 281 279 280 280 279 276 275 274 273 273 273 273 271 270 269 268 268 267 266 265 265 264 264 264 263 263 264 264 265 264 264 264 263 263 264 264 263 264 265 265 266 266 267 266 266 266
277 279 278 276 278 279 279 278 278 278 277 277 277 277 277 277 276 277 277 277 277 278 278 279 279 281 281 281 281 282 282 282 282 282 282 283 283 283 280 279 278 279 279 279 277 276 276 275 273 272 272 272 271 270 269 268 267 266 266 264 264 263 263 263 263 263 264 264 264 263 263 263 263 263 263 263 262 263 264 265 266 266 266 266 266
277 278 278 278 277 278 278 277 277 277 277 276 276 276 276 276 275 276 276 277 276 277 277 278 278 278 279 279 281 281 282 282 282 282 283 283 283 282 280 280 278 278 278 278 277 275 275 275 274 274 272 271 270 269 268 268 268 266 265 265 264 264 263 263 263 264 264 264 263 263 263 263 263 262 262 262 263 264 264 265 265 265 266 265 265
275 276 277 275 274 275 275 276 275 273 274 275 275 275 275 275 275 275 275 275 275 275 276 276 277 277 277 278 280 279 280 281 281 281 282 282 282 281 281 280 279 278 278 278 278 276 274 275 274 273 271 270 268 268 267 267 267 266 265 264 264 263 264 263 264 263 263 264 263 263 262 262 262 262 262 262 262 263 264 264 265 265 265 265 265
274 272 272 272 274 275 276 275 274 274 274 274 274 274 273 274 274 274 274 274 274 275 275 275 276 276 277 278 278 279 278 278 278 278 279 280 281 281 280 280 279 278 278 278 277 275 275 274 274 273 271 269 268 268 267 267 267 266 265 264 263 263 263 262 262 263 263 263 263 263 263 263 263 262 262 262 261 262 263 263 263 264 264 264 265
274 274 273 272 274 274 273 273 274 274 273 274 273 273 273 273 273 273 273 273 273 274 274 274 274 275 276 277 277 278 277 277 278 279 279 279 280 280 281 280 279 278 278 278 277 275 273 273 274 273 271 269 268 268 268 267 266 265 264 263 262 262 262 262 262 263 263 263 263 263 263 262 262 262 262 262 262 262 262 262 263 264 264 264 264
273 272 271 272 272 273 272 272 272 273 273 273 273 273 273 272 273 273 273 273 273 273 273 274 274 275 276 276 277 278 277 277 277 278 279 278 279 279 279 279 278 278 277 276 276 274 273 273 273 273 271 269 268 268 267 266 265 264 263 262 262 262 262 262 263 263 263 263 263 262 262 262 262 262 261 261 262 262 262 262 262 263 264 264 264
272 272 272 272 271 272 272 272 272 270 271 270 271 272 272 272 272 272 272 272 272 272 272 273 274 274 275 275 276 277 276 276 277 277 277 278 277 278 278 278 279 278 277 276 276 274 273 272 272 272 271 270 268 266 266 265 265 264 263 262 262 262 261 261 262 262 262 262 262 262 262 262 262 262 262 262 261 262 261 262 262 263 263 263 263
271 272 272 271 271 272 271 272 272 271 271 271 271 270 271 271 271 272 271 271 272 272 272 272 273 273 274 275 275 275 275 276 273 276 276 277 277 277 277 277 278 278 277 277 276 275 273 272 272 271 270 269 268 267 266 265 264 263 263 262 261 261 261 261 261 261 261 261 262 262 262 262 262 261 261 261 261 261 261 261 261 262 262 263 263
271 271 271 271 271 271 271 271 271 271 271 270 270 270 270 271 271 271 271 271 271 271 271 272 272 272 272 273 274 274 274 274 275 275 275 276 276 276 277 277 277 277 277 276 275 274 273 272 271 271 270 268 268 267 266 265 264 263 263 262 261 261 262 261 261 261 261 261 261 261 261 261 262 262 261 261 260 260 260 260 260 260 261 262 262
270 270 270 270 270 270 269 269 269 269 269 269 269 270 269 270 270 270 270 270 270 270 271 271 271 271 271 272 272 272 273 273 273 274 274 275 275 275 276 276 276 276 276 275 275 274 272 271 270 270 269 268 266 265 265 264 264 264 264 263 262 262 262 262 262 262 262 261 261 261 261 261 261 261 261 260 260 260 260 260 260 260 260 260 261
268 268 268 268 268 268 268 268 267 268 268 268 268 268 269 269 269 269 269 269 269 269 270 270 270 270 270 271 271 271 271 272 272 272 273 273 274 274 275 275 275 275 275 275 274 273 272 271 271 270 268 267 266 264 264 263 263 263 264 264 263 263 263 263 263 262 262 261 261 261 261 261 261 261 261 261 260 260 260 260 260 259 259 259 260
265 266 267 267 267 267 266 266 267 267 267 267 267 267 268 268 268 268 268 268 268 268 268 269 269 269 269 270 270 270 270 270 270 271 271 271 272 272 273 273 273 273 274 273 273 272 271 270 269 269 268 268 266 264 263 263 263 263 263 263 263 263 263 262 262 262 261 261 262 262 262 261 261 261 260 260 260 260 259 259 259 258 259 259 259
265 266 266 265 265 265 265 265 265 264 266 266 266 266 266 266 267 267 267 267 267 267 267 268 268 268 268 268 269 269 269 269 270 270 270 270 270 271 271 271 271 272 272 272 272 271 269 269 269 269 268 267 265 264 262 262 262 262 262 262 262 262 262 261 261 261 261 261 262 261 261 261 261 261 260 260 259 259 259 259 259 259 258 258 259
264 264 264 264 264 264 265 265 264 265 265 265 265 265 265 265 265 265 266 266 266 266 267 267 267 267 268 268 268 268 268 268 268 269 269 269 270 270 270 270 269 270 270 270 269 268 267 266 266 267 267 266 266 264 262 261 261 260 260 261 261 261 260 260 260 260 261 261 261 261 261 261 261 260 260 259 259 259 259 259 259 258 258 258 258
263 262 263 263 263 263 263 263 263 264 263 263 263 263 264 264 264 264 264 265 265 265 266 266 266 267 267 267 267 267 267 267 268 268 268 269 269 269 269 269 269 269 269 268 268 267 266 265 264 264 264 264 264 263 262 261 260 260 260 260 260 260 260 260 260 259 260 260 260 260 260 260 260 259 259 259 258 258 258 258 258 258 258 257 257
261 261 262 262 262 262 262 262 262 262 262 262 262 262 263 263 263 264 264 264 264 265 265 266 266 266 266 267 267 267 267 267 267 267 268 268 268 268 268 268 268 268 267 267 266 266 265 264 264 264 264 263 263 262 261 260 260 260 260 260 260 260 260 260 259 259 259 259 259 259 259 259 258 258 259 258 258 258 257 258 257 257 258 257 257
Wind_Speed
5 6 7 9 10 10 9 9 10 8 9 10 10 10 11 11 11 10 8 9 9 10 10 11 11 11 11 10 12 10 10 8 8 8 9 9 7 9 8 8 10 6 6 6 5 7 7 7 6 5 5 6 5 4 4 4 3 3 3 3 2 2 2 3 3 4 2 1 2 3 4 4 5 3 4 4 5 4 6 6 7 7 8 9 10
4 4 4 6 9 9 10 8 7 8 9 9 9 9 9 9 9 8 9 9 10 10 10 10 10 10 11 13 11 11 10 10 10 9 11 11 9 6 7 10 9 8 7 7 7 5 6 8 7 6 4 6 5 5 5 5 4 4 3 2 2 2 2 2 3 3 3 1 3 3 4 3 5 3 5 6 6 6 7 6 5 7 8 9 10
5 5 5 6 7 8 8 7 6 7 8 7 8 8 8 8 7 9 8 7 7 9 10 10 10 10 10 11 10 11 10 9 9 10 10 10 9 7 8 10 8 9 9 9 8 8 7 7 7 6 4 6 5 5 4 4 3 3 3 2 2 2 2 2 2 3 3 3 2 4 4 5 5 6 6 5 6 6 7 6 6 5 6 9 11
5 5 5 6 7 7 7 5 6 6 7 6 7 6 5 5 5 6 7 7 8 6 8 11 11 11 10 8 10 10 9 10 9 9 10 10 9 9 9 9 8 8 9 9 9 9 8 8 8 7 7 7 6 5 4 4 4 3 4 2 2 2 1 1 2 2 2 3 2 3 5 6 6 6 6 6 7 7 6 6 5 6 8 8 10
5 5 5 5 5 5 6 5 6 6 7 5 6 5 5 5 5 7 6 7 8 8 7 7 10 11 11 11 10 9 10 10 9 9 8 7 8 8 8 8 8 8 8 8 9 8 8 8 9 8 7 7 6 5 5 5 4 4 3 3 2 2 1 2 2 2 3 4 4 3 4 5 5 6 6 7 8 6 5 5 5 5 6 9 11
4 4 4 4 4 5 5 4 6 7 6 5 5 5 5 6 6 6 7 9 8 8 10 9 10 10 10 11 10 9 9 9 11 10 8 8 7 7 6 7 8 8 8 7 7 6 7 8 9 8 8 7 7 6 6 6 4 4 4 3 2 2 2 2 2 2 3 4 4 5 4 5 6 5 5 7 9 9 6 4 4 4 7 9 10
4 4 4 5 5 5 5 6 5 5 5 5 4 4 5 4 5 6 6 7 8 8 6 8 6 7 8 10 12 12 11 10 8 8 8 8 8 8 8 8 8 7 7 7 6 6 6 7 8 7 7 7 7 7 7 6 5 5 4 4 3 2 2 2 2 2 3 3 4 4 4 4 5 6 6 6 7 7 9 11 6 2 5 8 12
5 5 5 6 6 7 7 6 5 5 3 3 4 4 3 4 4 4 4 7 8 8 9 9 6 5 7 8 8 9 9 9 7 8 8 9 9 8 8 9 9 8 7 7 6 6 6 6 7 6 6 6 7 7 8 7 6 6 4 4 3 3 2 2 2 2 2 3 3 4 4 5 5 4 5 6 7 5 6 8 11 13 12 8 8
6 6 6 6 7 6 5 4 4 4 4 4 4 5 5 4 4 5 5 5 5 5 5 5 8 8 5 6 7 7 8 9 9 9 10 10 9 9 9 9 10 10 8 8 6 6 6 6 6 6 6 6 6 5 5 5 6 6 6 5 5 4 3 2 1 1 1 2 3 3 4 4 4 6 7 7 8 8 10 9 9 9 11 13 11
6 6 6 7 5 4 4 4 4 4 5 5 5 5 5 5 6 6 6 5 6 6 7 7 8 9 10 7 7 7 7 7 10 15 14 11 10 8 8 9 9 9 10 9 8 7 6 6 5 9 9 9 7 7 8 5 3 4 6 6 5 4 3 2 2 1 1 2 2 3 4 4 5 5 6 6 7 8 9 9 10 11 12 13 11
7 7 7 6 4 4 4 3 4 5 5 4 4 5 5 5 4 4 5 6 7 6 7 8 7 6 9 11 10 7 7 7 15 16 15 16 10 10 10 9 9 9 9 10 9 9 7 7 8 8 9 8 8 10 9 9 8 7 7 5 4 4 4 3 3 2 2 2 2 3 3 5 5 5 5 6 7 8 8 9 10 10 10 12 14
8 7 7 6 6 6 5 4 5 5 5 6 6 5 6 6 6 6 6 7 6 6 6 7 7 9 8 8 9 9 9 11 18 14 11 14 13 10 9 9 9 8 8 9 8 8 9 8 7 6 6 8 8 9 9 10 10 10 9 8 6 3 4 4 3 3 3 2 3 3 3 4 5 5 6 7 8 8 8 9 9 9 10 10 10
7 7 6 6 6 6 6 7 6 5 5 6 6 6 6 6 6 8 8 6 6 8 8 8 8 7 8 10 10 9 7 13 17 14 13 12 13 12 8 8 9 8 8 8 9 8 8 8 7 6 5 8 8 8 8 9 8 9 9 7 5 4 4 5 5 4 3 3 4 4 4 4 6 5 6 7 8 8 8 8 7 8 7 9 10
8 7 6 6 6 6 7 7 7 6 5 5 5 6 6 7 7 5 4 5 7 7 6 8 7 8 8 9 8 6 7 13 14 14 13 13 13 11 7 9 8 8 8 8 8 9 9 8 8 7 7 9 7 8 8 8 8 7 7 5 4 5 6 6 5 3 4 4 4 5 5 4 6 6 7 6 7 7 8 9 8 9 9 8 11
7 7 7 7 6 6 7 7 7 6 6 6 5 4 6 3 4 3 4 6 7 7 8 7 7 5 8 8 7 7 7 14 13 15 15 15 12 10 7 7 7 7 7 7 7 8 8 7 8 8 9 9 7 9 8 8 8 7 7 5 5 5 5 5 4 4 3 3 4 5 5 5 5 6 6 6 7 7 7 9 9 10 10 10 8
8 7 7 8 8 7 7 7 6 6 6 5 5 4 4 5 6 4 4 3 2 2 4 4 8 8 6 8 7 8 8 15 14 14 16 16 14 8 8 8 7 7 7 6 6 6 7 7 7 8 9 8 9 12 9 8 8 8 7 6 5 4 4 2 2 4 3 3 4 4 4 5 6 6 6 6 6 6 6 7 7 7 9 9 8
8 8 8 8 7 8 8 7 7 7 5 5 6 6 6 5 4 4 4 4 5 5 5 5 5 6 8 5 8 8 9 15 18 16 16 18 12 6 6 6 6 7 7 6 6 6 6 7 7 7 8 7 11 13 12 11 8 8 8 7 6 3 3 3 5 6 0 3 4 6 7 7 6 6 7 7 5 5 5 5 4 6 7 10 9
8 8 8 6 7 7 7 8 6 6 6 7 7 5 4 4 5 5 7 7 6 6 5 3 2 4 9 9 8 8 7 14 18 15 17 17 12 7 7 7 7 6 7 6 5 5 6 8 8 7 8 8 14 15 15 12 9 9 9 7 5 4 5 5 4 4 2 3 5 5 5 4 5 6 5 5 5 4 2 4 5 5 6 6 10
8 7 6 6 8 8 7 6 5 7 7 7 7 7 7 6 4 5 4 5 6 6 5 6 5 3 4 6 10 7 5 11 17 14 17 15 11 6 7 7 8 7 7 7 6 5 6 8 10 8 8 10 16 15 15 13 9 9 8 7 6 6 6 7 5 3 2 2 2 1 2 2 3 2 3 5 5 4 2 3 4 4 5 7 8
8 8 8 8 7 7 5 6 6 7 8 6 6 6 5 6 7 7 4 5 6 5 5 4 8 5 5 5 6 7 7 8 12 15 16 16 14 8 7 9 9 8 7 7 7 6 7 7 10 12 12 14 16 16 15 13 8 7 7 7 7 7 6 6 4 2 2 3 2 2 3 3 2 2 2 2 3 2 2 3 3 4 5 6 7
8 9 9 9 9 8 6 7 8 7 6 7 6 5 6 7 7 8 7 4 4 5 6 5 5 4 5 4 5 5 6 7 12 16 17 18 16 12 8 7 7 8 8 7 7 8 8 8 8 13 16 15 15 16 15 13 11 7 7 6 6 5 7 4 4 4 2 2 3 3 3 2 2 2 2 2 1 1 2 3 3 4 5 6 7
6 7 8 9 7 6 7 6 6 6 5 5 6 6 6 6 8 8 5 7 9 8 7 5 6 5 5 5 4 5 7 11 8 15 17 18 17 14 7 5 6 9 8 7 7 6 7 8 7 13 18 16 16 15 15 13 13 7 6 8 8 11 6 4 4 3 2 2 3 3 3 2 2 2 2 2 2 2 3 3 4 5 5 6 7
6 5 3 5 5 5 5 6 6 5 5 5 7 6 6 5 4 4 6 7 8 8 7 6 6 6 5 5 5 5 6 7 10 10 15 15 16 14 6 6 10 6 7 9 9 8 7 7 8 14 18 17 17 16 14 14 12 7 11 12 12 11 7 4 3 3 2 3 3 3 3 3 2 2 2 2 2 2 3 4 4 5 6 7 8
3 3 3 4 4 5 5 5 5 6 7 7 7 7 7 7 6 6 5 6 6 6 5 5 5 5 7 6 5 6 5 6 9 11 12 16 15 15 13 11 13 7 6 5 6 7 8 8 9 16 18 18 17 16 14 14 9 11 12 13 13 9 4 4 4 3 2 3 4 4 4 3 2 2 2 1 2 4 5 5 5 6 7 7 8
4 4 4 4 4 4 4 5 6 5 6 7 8 6 8 7 7 5 6 7 7 7 7 7 7 7 7 7 6 6 6 6 6 10 12 14 16 16 15 14 14 11 6 4 5 6 7 12 15 17 17 18 17 15 12 13 12 13 13 14 11 5 5 4 4 4 4 4 4 3 3 4 3 3 2 3 4 5 5 4 5 7 8 8 9
4 4 3 3 2 4 4 3 3 3 4 4 5 6 7 8 7 7 7 7 6 7 7 7 7 7 7 7 7 7 7 7 8 8 9 11 13 15 14 14 13 13 6 5 8 10 13 14 16 17 17 14 12 9 9 9 13 13 13 11 5 4 5 5 4 5 4 3 3 4 3 2 3 2 3 4 4 3 2 4 4 5 4 4 5
4 3 2 2 3 3 4 3 4 3 4 3 4 4 5 6 6 7 7 7 7 7 7 7 8 8 8 8 6 6 8 8 8 9 12 10 9 10 11 10 12 12 6 5 9 8 11 11 10 14 12 15 9 7 9 10 9 8 6 5 4 4 4 4 5 4 3 3 3 3 3 2 2 3 3 2 2 2 2 4 4 4 4 4 6
4 3 4 3 3 3 3 4 4 3 4 4 4 5 5 6 7 8 9 9 9 9 8 8 9 9 10 8 7 7 8 8 9 11 12 11 10 9 10 9 10 9 7 7 7 7 8 9 11 8 6 6 6 5 4 5 5 5 5 5 4 4 5 5 4 3 3 2 2 3 3 3 3 2 2 2 2 2 2 3 4 4 4 4 5
5 5 4 3 2 3 2 3 3 3 3 3 4 4 6 7 7 6 5 5 7 8 8 9 8 6 7 8 9 9 7 9 13 10 9 11 12 11 12 11 10 8 9 12 8 7 7 8 9 9 8 9 6 6 6 5 5 5 5 5 5 5 5 5 5 5 4 3 4 4 3 3 3 3 3 2 2 2 2 2 3 3 4 5 6
5 4 4 3 3 3 2 3 3 3 3 3 4 3 4 5 4 4 5 7 7 8 6 6 5 5 7 7 7 9 11 6 3 10 11 14 14 12 7 9 11 9 14 20 11 9 9 8 8 9 10 9 8 8 8 8 7 6 6 6 5 5 5 5 5 4 4 4 4 4 3 3 3 3 3 2 2 2 2 3 3 3 4 5 6
3 3 3 3 4 4 3 3 3 3 3 3 3 4 4 4 7 8 6 2 3 6 7 6 5 9 7 6 3 8 7 3 9 14 15 16 19 17 13 15 18 15 20 15 9 9 12 12 10 8 10 8 7 10 7 7 7 6 6 6 5 6 6 5 5 5 5 5 5 4 3 4 3 3 2 2 2 2 2 2 2 3 5 5 5
3 3 3 3 4 4 3 3 3 4 3 3 4 4 4 4 4 7 9 8 7 9 10 10 9 9 11 10 6 4 11 12 9 14 17 18 19 20 21 19 20 19 22 18 9 10 8 8 9 11 10 10 12 10 8 7 7 7 7 6 6 6 6 6 6 6 5 5 5 5 5 4 3 3 3 3 3 3 2 2 2 3 4 5 5
2 2 3 3 3 4 3 3 3 3 4 4 4 4 4 4 4 3 5 9 10 10 10 11 11 11 11 12 13 10 9 11 15 16 18 20 20 20 20 20 21 22 22 15 9 8 9 10 11 10 10 11 9 8 8 7 7 7 7 7 7 7 6 5 7 5 5 5 5 5 4 4 3 3 3 4 4 3 3 3 3 4 4 5 5
3 3 3 4 3 3 3 3 3 3 3 3 3 4 4 4 4 3 3 3 4 7 11 13 12 12 13 14 14 14 14 15 16 17 18 19 21 21 21 17 21 23 21 13 10 10 8 9 11 12 12 8 7 8 8 7 7 7 6 6 5 5 6 7 6 6 6 7 7 5 5 4 4 3 3 3 3 3 4 4 4 4 4 4 5
2 3 5 4 2 2 2 2 3 3 3 3 4 4 4 4 4 4 5 5 5 5 5 7 11 15 11 11 15 16 16 16 16 17 19 20 21 21 20 14 15 16 19 15 11 10 12 14 14 13 11 10 9 10 10 9 9 8 8 7 6 6 7 8 7 7 6 6 6 6 5 5 4 4 4 3 3 3 4 4 4 4 4 4 4
1 1 1 2 2 1 2 2 2 2 3 3 3 3 3 4 4 4 4 5 5 5 5 5 4 8 15 14 13 14 16 16 16 17 18 20 20 22 16 16 13 14 16 16 13 12 12 11 10 8 4 5 5 8 8 9 10 9 7 7 8 8 8 8 8 8 7 6 6 6 6 5 5 4 3 3 5 5 4 5 5 5 4 4 3
1 1 1 1 1 1 1 1 1 1 2 2 2 2 3 3 3 3 3 5 5 5 5 4 2 2 6 7 10 12 14 15 17 17 18 20 23 19 16 17 16 15 15 15 13 9 9 11 8 9 7 6 6 6 5 7 6 6 6 7 7 8 8 8 8 8 8 7 7 7 7 5 5 5 4 4 4 4 5 5 5 5 5 5 4
0 0 0 1 1 1 1 2 2 2 2 2 2 2 3 3 3 4 4 5 5 5 5 5 5 5 5 5 7 6 7 12 14 14 15 17 17 16 16 15 15 14 14 13 9 9 11 10 10 11 7 5 6 6 6 7 7 7 7 6 6 5 9 8 10 8 8 6 7 7 6 6 5 5 5 5 5 4 5 6 5 5 5 6 5
0 1 1 2 2 1 1 2 2 2 2 2 2 2 3 3 3 4 4 4 5 5 5 5 5 6 6 3 3 5 6 7 9 10 11 12 12 13 14 15 14 14 11 9 8 9 10 10 8 8 6 5 7 6 7 7 7 7 7 7 6 6 9 7 9 9 9 8 7 7 6 6 5 5 5 5 5 5 6 6 5 5 5 5 4
0 0 1 1 1 1 1 1 1 1 2 2 2 2 3 3 4 4 4 4 5 5 5 6 6 5 5 3 3 5 7 8 8 9 9 11 12 13 14 13 12 12 11 9 9 9 8 8 9 8 7 6 7 7 7 7 7 6 7 7 8 8 8 8 8 9 9 8 7 7 7 7 6 5 5 5 5 5 6 6 5 5 5 5 4
1 0 1 1 1 1 1 1 1 1 1 2 2 2 3 3 3 3 4 4 5 5 5 5 6 5 4 4 7 9 7 8 7 7 8 10 11 12 12 10 9 8 9 9 9 8 8 9 9 10 10 7 6 6 7 6 6 6 7 6 7 6 6 5 7 7 7 8 8 7 7 7 6 7 6 6 6 6 5 5 5 5 5 5 4
1 1 1 0 0 1 1 1 1 1 2 2 2 3 2 3 3 4 4 4 4 5 6 6 5 5 5 8 10 13 10 8 8 7 8 9 9 11 11 10 10 10 10 10 10 10 10 10 10 9 9 10 9 9 7 7 8 9 8 8 8 7 7 8 7 7 8 8 7 7 7 7 7 6 6 5 6 6 5 5 5 5 5 5 4
1 1 1 1 1 1 1 1 1 1 1 2 2 3 3 3 3 3 4 4 5 5 6 6 6 5 6 7 9 13 10 9 9 10 9 9 8 8 9 10 10 10 9 9 9 9 9 10 10 10 10 7 8 11 12 11 10 9 8 8 8 8 8 7 7 8 7 7 8 9 8 8 9 7 7 6 6 5 5 5 5 5 5 5 4
2 2 2 2 2 2 2 2 2 2 2 3 3 3 3 3 4 4 4 5 5 5 5 6 6 6 6 4 6 8 9 9 11 11 10 9 9 9 8 7 6 8 8 9 8 8 8 9 10 9 7 6 7 9 9 6 6 8 9 9 8 8 8 7 8 9 9 9 8 9 10 9 8 7 7 7 7 7 5 5 5 5 5 5 4
2 2 2 2 2 2 2 2 2 2 3 3 3 3 2 3 4 4 4 5 5 5 6 6 6 6 6 6 7 7 8 8 8 7 9 8 9 9 8 7 7 8 6 6 6 8 9 10 9 9 10 11 9 10 10 6 7 7 8 9 10 10 10 9 7 7 7 9 8 9 8 9 9 8 7 7 7 7 5 6 5 6 6 5 5
1 1 1 2 2 2 2 2 2 2 2 3 3 3 3 3 4 4 5 5 5 6 6 6 6 6 6 7 7 7 7 8 9 9 8 9 9 9 8 8 6 6 7 7 6 10 10 11 11 10 11 10 12 9 6 6 7 6 6 6 7 6 5 5 5 7 8 8 7 8 8 8 8 8 9 8 7 7 6 5 5 6 5 4 5
0 0 1 1 2 2 2 2 2 2 3 3 3 4 4 4 4 4 5 6 6 5 7 7 6 6 6 7 7 7 7 8 8 9 9 8 9 9 9 7 6 8 8 7 8 8 10 11 12 12 11 10 12 13 8 7 6 6 6 6 5 5 5 5 6 6 6 7 7 7 8 9 9 8 9 9 7 7 6 6 6 6 6 5 4
0 1 1 1 2 2 2 2 3 4 3 4 3 4 4 4 6 5 5 5 6 6 7 7 7 7 7 8 8 8 8 8 8 8 9 9 9 9 9 8 9 9 8 8 10 8 6 9 10 11 11 11 10 13 12 9 8 7 6 6 6 6 8 9 6 6 6 7 8 7 7 7 8 9 8 9 8 7 7 6 6 5 5 5 4
0 1 1 1 2 2 2 3 2 3 3 4 5 6 5 6 6 6 6 6 6 6 6 7 7 8 8 8 8 8 8 8 9 9 9 10 9 8 8 9 9 11 8 8 7 8 8 9 11 12 12 12 12 12 11 9 9 7 7 6 8 12 12 11 8 7 10 8 7 7 8 8 10 9 9 8 9 8 7 6 6 6 5 4 4
0 1 1 2 2 2 2 3 4 5 4 4 5 5 5 5 6 6 6 6 6 6 7 7 8 8 8 9 8 8 8 8 9 9 9 10 9 10 9 9 9 9 10 10 7 5 7 5 7 8 7 7 8 8 8 8 9 8 8 8 14 17 16 16 12 12 10 7 8 7 8 9 9 8 8 7 6 6 7 7 7 5 5 5 5
1 1 1 2 3 4 4 4 4 4 5 5 5 6 6 6 7 7 6 7 7 7 7 7 7 8 8 8 8 9 9 9 10 9 9 10 10 10 10 10 9 9 9 10 8 4 5 5 6 7 7 7 8 7 7 8 8 7 10 16 20 20 20 18 13 15 14 9 7 7 7 9 9 9 9 8 7 8 7 7 6 6 5 5 5
Wind_Direction
239 238 235 234 231 228 223 216 216 211 211 210 208 207 208 205 205 201 178 188 177 180 181 179 177 177 172 172 171 167 164 162 161 154 161 128 146 147 154 153 156 139 132 136 140 148 153 144 141 136 142 133 127 133 137 143 156 156 150 147 137 144 216 223 241 263 254 172 278 299 313 311 301 294 301 307 307 304 299 296 295 296 295 300 304
240 250 247 249 241 237 233 222 217 215 214 210 213 208 206 203 198 187 186 185 181 181 180 178 177 176 173 174 171 168 164 164 159 157 133 149 144 157 159 164 158 150 141 145 156 144 139 142 142 140 135 126 133 139 147 154 158 151 151 150 143 149 179 233 240 252 273 237 279 306 301 310 301 305 319 318 316 312 306 301 294 293 296 300 304
225 230 237 239 239 239 237 228 215 217 216 215 214 210 208 200 191 187 186 178 184 181 177 173 174 176 174 171 160 163 164 155 156 151 151 159 160 164 170 171 155 151 155 154 154 148 146 146 146 141 134 133 136 137 145 150 149 144 130 127 141 152 178 243 262 261 273 290 293 299 310 314 303 312 317 311 308 307 302 302 301 297 293 302 302
217 220 228 235 239 239 236 230 222 217 220 218 217 213 205 196 179 187 178 167 173 181 181 175 173 175 169 163 160 160 151 152 145 151 158 164 166 164 163 162 158 154 151 148 154 160 154 143 148 148 148 141 144 146 152 148 146 135 127 127 146 162 188 193 244 282 282 287 290 307 306 309 305 308 312 310 314 313 302 296 298 302 304 302 301
208 216 220 230 231 234 231 227 225 225 225 217 216 198 188 174 175 177 166 174 179 170 176 179 175 174 169 161 155 158 153 152 151 157 160 155 158 157 158 155 152 145 142 150 157 155 154 148 148 153 154 145 151 154 152 148 141 138 141 148 163 166 187 207 222 253 264 277 293 290 291 291 299 305 322 329 323 316 313 312 315 305 313 314 310
203 187 188 202 207 229 235 225 228 225 220 217 208 195 183 180 180 180 178 178 176 181 175 176 179 180 170 159 154 156 154 154 162 162 151 151 148 144 143 142 137 135 140 147 157 153 150 145 151 157 161 158 156 148 146 148 141 140 150 157 158 186 198 205 223 243 266 273 287 301 303 312 316 318 338 337 328 327 328 336 314 315 327 321 315
197 201 191 196 196 206 207 213 221 219 212 207 193 183 188 184 178 181 182 175 171 170 174 175 176 169 165 158 157 159 160 159 153 146 141 143 145 144 144 139 133 133 141 146 147 142 137 143 152 160 161 155 149 153 152 151 150 150 154 153 166 192 209 210 233 261 267 285 286 287 303 305 311 318 337 331 324 324 336 336 332 313 326 326 318
197 197 191 202 199 187 208 209 210 210 193 173 175 178 167 169 179 162 160 168 174 178 173 171 163 158 160 158 154 151 150 153 135 139 142 149 149 150 148 144 140 134 134 137 139 138 138 144 155 157 151 149 151 154 159 156 153 153 153 161 167 187 208 217 229 245 273 286 299 307 312 310 314 321 324 333 335 340 0 343 326 327 329 327 314
195 186 187 207 212 198 172 181 151 134 153 159 165 169 172 167 157 160 168 169 164 160 143 140 143 140 143 143 145 151 153 161 162 157 154 157 154 150 150 145 143 141 139 138 135 136 142 143 151 154 125 110 120 142 149 149 155 155 157 163 172 183 198 213 216 250 276 290 292 305 307 311 324 334 340 348 349 336 333 334 318 320 323 318 316
194 200 205 211 209 176 151 176 160 159 158 173 177 168 165 165 162 163 164 159 155 153 154 157 161 156 152 148 150 156 162 165 173 170 166 158 153 149 145 146 145 144 143 142 143 148 147 140 120 110 116 125 129 135 138 144 145 145 153 161 172 174 173 189 215 235 254 274 298 312 312 314 328 338 333 331 331 329 329 331 323 325 326 317 303
204 199 206 201 177 149 168 178 166 181 182 166 158 160 157 150 147 144 145 149 149 155 157 156 157 158 158 155 158 169 171 173 167 170 165 163 152 150 150 149 147 148 152 153 154 152 147 138 136 133 131 136 148 153 151 151 148 137 142 146 155 168 171 188 204 203 232 271 286 297 302 306 315 330 322 329 332 331 324 322 320 324 328 332 325
204 205 205 174 171 172 175 172 183 190 173 175 173 168 153 152 154 150 146 148 147 141 156 160 154 156 157 155 167 169 178 167 169 163 155 160 163 152 150 148 152 152 156 156 152 151 148 147 145 150 159 161 160 159 162 162 158 155 152 153 148 154 190 193 198 219 229 247 267 280 294 294 315 317 320 328 325 321 314 314 314 318 320 320 315
204 206 194 157 173 176 171 177 185 185 192 174 165 156 159 157 156 159 164 158 149 160 165 160 160 163 164 161 173 168 168 165 168 159 158 158 161 158 150 150 151 154 156 157 155 153 151 150 150 155 157 161 167 169 167 167 169 165 156 145 157 171 201 211 221 218 218 231 245 267 269 296 298 300 318 320 315 305 309 306 309 310 308 306 305
203 202 187 185 181 179 177 181 184 185 177 170 162 161 166 172 170 169 152 151 164 163 159 162 159 170 169 168 162 154 154 168 160 157 158 157 158 161 145 149 150 150 155 156 157 157 159 156 155 159 162 172 178 171 171 167 166 172 174 179 178 185 207 205 208 226 240 233 237 249 268 281 283 295 306 308 303 303 307 303 308 305 303 296 298
203 197 184 185 185 179 181 185 183 174 171 166 169 171 169 160 154 154 161 170 168 169 165 167 172 172 170 169 159 161 164 164 159 158 160 162 153 152 142 140 140 143 147 153 155 157 157 155 157 160 167 176 178 174 169 170 169 170 172 182 185 193 200 201 207 211 208 227 237 254 268 275 284 294 297 298 294 296 299 298 303 300 298 297 289
204 194 193 188 189 186 182 182 181 175 171 169 170 174 171 168 169 161 156 161 139 150 178 172 166 171 174 168 154 163 161 165 159 157 160 159 152 151 147 146 141 142 147 153 152 155 157 157 158 164 170 175 172 178 181 175 171 167 170 180 185 191 217 225 229 229 227 243 247 260 271 279 286 286 291 297 300 298 300 297 296 304 313 312 308
205 197 196 192 189 188 189 183 181 177 173 174 179 176 173 168 163 163 161 166 167 173 175 173 173 168 169 166 163 160 161 172 169 163 160 157 153 151 144 140 141 144 152 153 155 156 161 164 163 165 167 171 173 185 188 181 169 173 173 176 189 210 222 188 196 194 202 325 299 280 279 280 282 287 291 297 299 308 303 297 313 333 323 320 314
205 199 201 188 187 187 191 187 177 174 174 185 183 181 174 173 172 172 172 167 176 176 164 151 154 176 175 179 176 164 164 173 172 162 162 162 162 148 149 143 139 147 146 155 158 161 161 163 170 169 170 172 179 188 189 179 172 170 171 176 181 201 208 189 189 214 235 284 279 276 278 278 287 289 292 301 308 312 290 294 313 320 310 310 306
204 197 190 188 194 196 191 188 183 177 182 187 181 177 177 176 163 168 178 168 169 168 160 170 171 172 184 183 177 171 151 169 174 165 165 165 159 153 149 142 149 157 157 159 164 161 161 171 185 184 179 173 181 191 187 180 174 175 171 172 186 196 202 188 201 222 261 294 277 277 278 271 284 293 292 305 308 307 295 285 294 299 299 301 302
201 198 192 191 189 186 183 184 186 182 188 183 181 181 168 165 167 177 171 170 163 161 165 171 172 173 169 175 175 180 164 170 176 168 170 171 172 163 155 152 161 159 163 163 160 170 169 175 188 194 184 180 187 190 182 180 166 174 176 185 184 197 183 177 192 219 250 267 285 288 269 275 269 265 273 286 299 299 289 286 284 285 286 287 289
188 196 196 191 193 192 191 188 186 189 184 181 175 169 176 172 167 168 167 156 145 161 169 162 165 166 173 176 176 182 174 166 179 176 177 179 179 170 170 169 150 152 157 160 172 170 176 182 182 192 188 188 193 192 183 182 179 176 185 188 193 167 141 149 170 194 213 251 275 274 268 264 262 266 261 265 275 288 293 289 276 271 273 275 281
183 184 186 193 189 185 187 186 185 178 170 160 164 174 181 162 171 172 163 166 172 174 166 165 175 176 177 185 184 179 183 186 174 185 184 186 187 185 176 168 147 147 150 167 171 176 181 181 179 189 191 193 195 192 189 182 177 173 190 184 170 153 146 142 154 176 206 214 223 232 233 236 239 239 255 259 256 284 287 280 272 273 274 266 266
177 180 178 186 184 181 184 180 174 163 163 163 162 167 167 153 148 152 162 162 169 168 172 171 168 174 175 190 189 186 181 189 192 188 190 189 192 191 175 140 158 163 155 171 179 178 176 177 180 181 189 194 194 191 187 181 176 188 185 174 160 148 141 155 152 177 202 212 213 221 222 229 237 240 254 253 277 292 283 282 281 281 279 273 275
152 162 164 176 176 185 180 174 174 176 171 168 172 165 171 166 154 168 160 162 171 173 183 181 182 181 185 187 189 188 186 187 194 197 195 195 192 190 186 174 172 179 173 167 168 168 170 179 174 178 188 194 194 192 189 180 185 187 177 160 149 148 147 147 166 182 199 211 215 215 216 219 230 236 235 284 296 297 291 289 288 286 276 276 277
131 144 154 156 174 173 163 174 172 169 169 165 167 160 163 154 164 174 167 182 181 181 182 178 188 187 192 192 189 186 185 188 190 200 202 198 196 191 188 182 183 173 167 164 163 174 174 168 168 178 188 192 192 188 187 185 189 183 165 152 155 161 162 165 169 173 198 209 214 216 218 214 219 233 267 286 289 284 275 275 268 260 259 259 265
130 139 134 149 134 123 136 131 142 146 158 174 175 167 164 171 177 173 182 192 190 187 183 180 190 191 196 196 187 181 181 186 196 194 199 202 201 195 188 186 182 182 168 164 166 166 170 169 169 180 190 189 186 185 181 179 183 166 156 157 167 169 166 166 172 184 204 203 211 217 218 209 224 239 267 261 255 259 274 291 289 280 272 275 280
116 109 126 122 116 137 157 168 163 159 180 181 185 177 175 179 177 176 184 188 188 192 188 183 193 197 200 196 182 173 185 198 198 196 199 196 196 191 186 185 179 174 167 168 167 170 171 166 175 185 187 189 167 143 163 162 155 155 157 171 180 169 169 177 181 187 191 197 213 222 225 230 240 237 229 225 247 250 267 277 278 281 281 286 280
145 142 132 137 149 160 180 148 159 172 185 190 187 186 188 192 192 192 189 188 184 193 190 192 199 197 199 190 179 186 196 201 201 198 195 190 189 184 183 181 181 181 168 165 163 162 160 170 181 173 143 136 142 163 167 175 170 166 172 178 178 164 157 154 159 180 191 199 229 228 237 225 228 226 229 234 236 249 257 269 275 291 292 285 275
119 117 136 136 145 154 171 158 189 186 180 205 220 209 196 197 207 217 214 199 191 184 186 203 205 204 192 185 180 195 202 207 214 202 192 188 183 173 180 185 179 177 170 156 138 145 160 170 172 176 177 177 164 176 187 183 187 179 171 179 170 167 166 176 182 183 178 187 214 217 219 219 227 227 226 229 230 231 254 259 274 271 286 274 263
131 143 150 154 146 158 169 171 182 193 192 204 218 246 300 281 280 234 219 219 240 251 241 226 213 201 208 216 196 195 197 214 140 176 197 197 198 196 195 175 172 164 163 167 154 164 177 178 186 182 183 183 182 187 191 188 179 178 184 189 182 177 176 181 182 172 172 191 210 218 221 216 225 223 228 230 235 233 237 253 263 275 269 261 258
146 138 157 168 165 166 169 174 177 193 195 201 209 222 231 230 246 266 295 269 211 233 248 262 243 227 225 234 221 247 271 9 166 195 201 207 206 203 195 187 184 172 171 163 165 183 184 195 193 189 197 189 187 199 184 181 184 173 176 180 187 183 181 178 179 169 174 187 206 214 212 213 220 227 228 240 243 252 244 248 250 256 257 262 264
160 163 162 150 151 178 172 177 171 192 198 196 207 212 221 238 234 217 226 234 229 230 236 239 238 232 229 233 232 223 225 230 200 197 205 208 211 210 208 200 197 186 185 177 174 195 195 193 191 198 196 197 207 200 191 186 182 176 166 174 190 187 185 184 173 165 176 186 198 205 204 205 211 217 234 241 246 256 249 253 248 254 269 271 271
147 140 141 154 167 173 183 180 191 194 197 196 208 209 221 227 237 234 198 214 227 233 238 239 237 235 230 225 216 211 202 203 211 208 205 207 210 212 210 209 205 197 188 190 203 198 197 199 203 204 198 206 197 185 195 185 181 177 180 181 179 178 179 166 156 168 184 194 195 201 195 194 197 209 229 233 234 243 242 241 239 250 260 273 280
146 162 167 165 166 174 183 191 191 200 199 203 207 210 221 228 239 241 241 205 208 233 238 238 236 232 232 230 222 217 213 206 207 208 207 205 208 210 211 213 212 205 200 204 200 205 191 197 209 209 208 202 189 180 186 184 175 172 176 180 168 155 153 151 168 181 185 196 203 198 192 186 186 195 219 223 233 237 242 237 236 238 248 262 277
148 107 129 163 180 185 182 188 190 197 198 206 211 216 227 229 235 242 242 241 238 230 225 221 221 223 227 227 227 221 216 214 211 208 205 205 205 206 209 213 213 214 214 219 216 210 208 212 213 213 209 202 192 183 188 180 176 173 176 167 161 158 157 171 179 180 186 193 197 197 191 179 184 197 199 212 221 227 230 234 234 235 240 254 268
139 166 152 173 203 199 196 195 195 199 205 210 214 217 223 223 225 234 236 243 250 257 258 235 214 208 219 230 231 228 224 217 215 213 210 204 202 198 205 212 211 214 214 216 211 211 215 221 219 220 210 216 197 201 200 192 189 179 170 162 169 166 167 172 174 180 186 191 196 189 180 184 187 189 200 213 220 227 234 233 236 236 240 245 256
151 187 193 196 201 221 220 198 216 226 237 244 232 238 239 241 246 250 249 249 247 251 252 255 224 221 223 231 229 231 228 224 220 219 213 208 204 202 211 211 211 212 214 217 212 202 210 222 215 222 206 200 199 195 183 198 188 174 171 178 171 166 174 172 170 172 178 189 188 186 186 184 182 185 190 204 219 219 227 232 238 238 237 240 250
138 210 211 129 166 191 199 216 203 195 217 222 227 233 240 241 243 244 252 254 255 256 256 254 243 246 236 232 174 204 229 229 229 231 224 217 213 213 217 220 221 220 223 225 217 212 218 225 220 223 211 186 184 181 189 196 187 184 181 175 179 179 159 158 170 171 177 183 184 181 181 182 183 186 195 203 210 214 221 226 228 234 238 234 234
138 85 95 165 205 220 214 209 192 198 210 210 219 218 232 239 243 243 247 253 254 253 256 257 250 245 242 224 176 193 193 223 218 223 219 217 215 216 219 223 224 225 225 222 217 218 220 222 222 225 217 196 203 196 194 195 185 182 175 171 175 168 174 174 173 177 184 188 181 178 178 177 183 186 194 197 208 212 216 221 229 232 232 232 229
32 340 143 195 241 231 245 241 233 222 224 222 224 218 228 234 237 240 241 244 248 249 250 251 250 245 238 218 204 198 211 222 222 219 218 217 217 219 220 223 224 224 223 225 219 218 222 224 223 223 214 199 204 200 199 195 191 179 173 180 175 182 185 176 175 175 179 175 175 175 174 177 180 185 195 205 203 205 209 216 224 229 234 234 238
12 6 343 253 283 276 232 234 241 242 249 239 252 243 243 243 249 252 255 254 257 260 257 256 257 255 238 214 216 214 227 232 226 223 220 220 221 221 222 227 225 226 224 224 224 215 213 220 222 222 220 211 200 200 197 194 182 175 187 182 181 178 172 173 174 172 169 170 172 172 172 174 181 186 195 200 198 204 211 214 224 230 231 234 234
353 338 297 295 226 259 259 255 250 248 251 253 255 250 253 249 250 251 254 257 260 259 265 265 263 260 238 211 222 227 234 243 240 237 235 234 235 235 234 235 233 229 225 224 219 216 215 218 221 219 222 220 207 199 186 195 192 190 187 185 183 172 179 186 183 175 170 171 170 174 176 174 178 192 193 190 196 202 206 212 217 223 230 229 228
353 334 342 323 316 286 296 291 288 263 254 249 249 255 256 263 265 261 260 260 259 264 268 271 272 272 262 232 229 232 237 242 245 244 243 238 235 235 235 236 237 237 232 230 228 224 223 223 225 223 220 209 203 206 199 193 186 182 180 180 178 179 181 180 176 179 175 171 171 181 177 179 183 185 186 190 194 199 204 207 214 221 226 227 228
353 349 345 342 332 328 319 314 309 303 294 301 298 289 280 280 271 269 270 271 269 269 269 270 276 273 275 259 228 229 239 243 247 249 248 242 243 242 240 238 233 242 241 238 232 228 225 228 231 231 222 204 207 210 212 205 182 188 186 181 183 180 182 178 181 180 176 171 170 173 180 183 183 186 186 190 190 199 202 204 209 218 222 224 224
352 343 334 322 326 315 317 314 307 303 303 299 283 280 274 269 270 273 272 271 274 269 269 271 272 272 268 264 251 241 241 245 245 245 247 248 248 248 248 247 242 241 237 233 228 231 230 231 233 232 230 228 207 193 190 195 195 197 193 178 181 184 191 186 180 164 162 165 168 173 178 178 183 189 190 188 188 197 197 198 200 211 217 222 220
359 333 321 311 306 305 304 302 303 293 292 287 285 283 277 269 266 265 266 270 270 271 275 271 270 268 265 263 262 258 251 248 252 254 254 252 252 254 254 248 238 237 238 237 230 235 236 234 234 233 231 229 221 201 189 188 196 202 197 198 194 180 160 134 137 155 171 166 164 165 176 179 182 192 192 196 197 198 198 197 202 212 215 218 222
343 301 306 290 297 292 296 292 293 288 281 275 272 274 272 274 271 271 268 265 269 274 276 274 274 271 270 268 268 266 264 260 258 255 254 253 258 261 262 256 249 251 245 234 236 231 228 231 234 236 237 236 227 213 197 198 195 195 194 192 190 166 155 157 163 164 161 162 159 162 177 186 187 190 192 194 196 192 192 195 201 207 218 221 221
338 311 294 294 287 283 281 286 281 279 274 274 274 276 279 281 281 278 281 279 274 274 275 275 277 276 276 275 274 274 272 271 268 268 265 264 260 258 257 260 261 257 249 244 246 236 222 227 232 234 235 232 223 217 197 191 193 195 189 186 175 180 167 162 160 162 164 163 164 164 165 170 187 192 188 184 188 186 187 198 200 209 208 212 220
317 294 289 281 277 279 279 283 282 283 285 290 288 285 284 285 283 284 283 280 279 277 277 277 278 276 274 275 276 276 275 273 270 270 270 271 268 263 259 259 263 264 257 250 242 226 211 218 226 233 233 233 229 215 189 193 184 190 186 186 167 170 166 159 163 166 167 161 154 170 179 187 191 193 191 186 192 194 196 201 203 204 207 207 208
310 292 281 287 276 276 282 285 284 285 289 286 285 284 284 281 280 278 277 275 273 269 269 271 269 271 273 274 273 269 266 265 268 267 270 271 270 270 269 267 265 263 262 258 243 215 216 216 209 220 214 213 208 207 197 190 189 187 188 181 176 177 176 173 167 156 160 163 170 179 179 187 189 191 189 186 180 179 192 199 201 200 207 205 212
308 299 284 280 284 287 289 285 282 281 279 278 278 277 278 277 276 277 275 272 271 272 272 271 273 274 270 268 271 271 271 271 272 273 274 273 274 273 273 270 267 265 264 264 254 229 218 214 216 218 217 211 205 199 195 196 192 187 187 184 184 183 182 179 181 178 171 163 173 169 178 188 184 183 188 187 185 193 192 191 195 198 206 208 208